"Platform","Reno Beach Station"
"Latitude (deg)",41.68
"Longitude (deg)",-83.25
"Water Depth (m)",6
"Sensor Device","Yellow Springs YSI EXO2 Sonde"
"Sensor Serial No.","16B103514"
"Sensor Type","Temperature"
"Sensor Units","degrees celsius"
"Measurement","Average of 15 readings taken at 1 second interval"
"Time means","Time at beginning of profile (UTC time zone)"

"Note:","This data was collected for research purposes."
"Note:","Minimal quality checking has been performed so data may contain known or unknown errors."
"Note:","Data provided by NOAA. Please credit NOAA."
"Note:","For more info see www.glerl.noaa.gov/res/recon"

"Depth, meters",0,1,2,3,4,5
"Time, UTC","Temperature","Temperature","Temperature","Temperature","Temperature","Temperature"
"YYYY/MM/DD HH:MM","C","C","C","C","C","C"
2016/08/11 23:01,27.380,27.345,27.265,27.134,26.840,26.420
2016/08/11 23:11,27.383,27.366,27.264,27.147,27.035,26.470
2016/08/12 00:39,27.288,27.292,27.279,27.242,27.213,27.039
2016/08/12 00:54,27.282,27.287,27.268,27.220,27.072,26.612
2016/08/12 01:15,27.273,27.278,27.260,27.165,26.951,26.469
2016/08/12 01:28,27.265,27.273,27.272,27.245,27.146,26.770
2016/08/12 03:05,27.190,27.197,27.194,27.168,27.015,26.857
2016/08/12 04:05,27.162,27.169,27.171,27.156,27.103,27.042
2016/08/12 08:05,27.066,27.069,27.071,27.070,27.061,27.062
2016/08/12 12:05,26.925,26.924,26.924,26.926,26.928,26.927
2016/08/12 16:05,27.220,27.179,27.144,27.069,27.034,26.978
2016/08/12 20:05,27.539,27.504,27.436,27.301,27.108,26.847
2016/08/13 00:05,27.241,27.247,27.249,27.251,27.245,27.241
2016/08/13 04:05,27.163,27.172,27.180,27.173,27.165,27.155
2016/08/13 08:05,27.061,27.066,27.068,27.069,27.067,27.066
2016/08/13 12:05,26.960,26.963,26.966,26.962,26.967,26.968
2016/08/13 16:05,26.998,27.003,27.003,27.001,26.999,26.986
2016/08/13 20:05,26.931,26.948,26.952,26.949,26.954,26.949
2016/08/14 00:05,26.848,26.850,26.859,26.858,26.860,26.857
2016/08/14 04:05,26.734,26.728,26.729,26.738,26.734,26.735
2016/08/14 08:05,26.590,26.591,26.596,26.597,26.601,26.602
2016/08/14 12:05,26.483,26.477,26.487,26.486,26.488,26.482
2016/08/14 16:05,26.607,26.510,26.476,26.470,26.467,26.456
2016/08/14 20:05,27.655,26.714,26.541,26.482,26.460,26.446
2016/08/15 00:05,27.086,27.088,27.033,26.853,26.557,26.456
2016/08/15 04:05,26.654,26.654,26.662,26.649,26.638,26.532
2016/08/15 08:05,26.512,26.518,26.521,26.525,26.519,26.519
2016/08/15 12:05,26.423,26.418,26.430,26.430,26.427,26.425
2016/08/15 16:05,26.460,26.444,26.436,26.427,26.426,26.415
2016/08/15 20:05,26.449,26.444,26.436,26.444,26.432,26.422
2016/08/16 00:05,26.415,26.425,26.441,26.437,26.434,26.439
2016/08/16 04:05,26.327,26.329,26.331,26.336,26.332,26.332
2016/08/16 08:05,26.196,26.212,26.215,26.216,26.216,26.214
2016/08/16 12:05,26.056,26.072,26.066,26.074,26.075,26.076
2016/08/16 16:05,25.996,25.994,25.994,25.994,25.993,25.991
2016/08/16 17:28,26.008,26.005,26.012,26.012,26.013,26.013
2016/08/16 18:05,26.037,26.021,26.018,26.016,26.012,26.010
2016/08/16 19:05,26.095,26.088,26.069,26.062,26.049,26.040
2016/08/16 20:05,26.101,26.090,26.085,26.083,26.086,26.081
2016/08/16 21:05,26.147,26.132,26.111,26.106,26.104,26.104
2016/08/17 00:05,26.100,26.107,26.109,26.104,26.098,26.097
2016/08/17 08:05,25.940,25.954,25.958,25.958,25.950,25.956
2016/08/17 12:05,25.857,25.855,25.855,25.865,25.854,25.852
2016/08/17 16:05,26.077,26.026,25.942,25.887,25.868,25.854
2016/08/17 17:06,26.273,26.149,26.066,25.958,25.885,25.869
2016/08/17 20:06,26.799,26.498,26.307,25.902,25.877,25.863
2016/08/18 00:06,26.182,26.195,26.191,26.187,26.189,26.178
2016/08/18 04:06,26.009,26.024,26.023,26.022,26.029,26.018
2016/08/18 08:06,25.827,25.837,25.841,25.849,25.843,25.839
2016/08/18 12:06,25.701,25.708,25.709,25.705,25.704,25.704
2016/08/18 16:06,26.395,26.028,25.799,25.748,25.722,25.711
2016/08/18 20:06,27.256,27.093,26.736,25.995,25.725,25.711
2016/08/19 00:06,26.476,26.479,26.470,26.317,26.200,26.029
2016/08/19 01:06,26.350,26.359,26.358,26.342,26.278,26.246
2016/08/19 04:06,26.098,26.100,26.117,26.103,26.088,26.045
2016/08/19 08:06,25.928,25.944,25.945,25.954,25.946,25.950
2016/08/19 12:06,25.847,25.848,25.850,25.847,25.844,25.843
2016/08/19 16:06,26.200,26.111,26.028,25.937,25.870,25.860
2016/08/19 20:06,26.445,26.422,26.223,26.159,26.032,25.865
2016/08/20 00:06,26.548,26.528,26.434,26.247,26.166,26.013
2016/08/20 04:06,26.250,26.253,26.254,26.218,26.198,26.170
2016/08/20 08:06,26.047,26.049,26.073,26.073,26.069,26.063
2016/08/20 12:06,25.924,25.924,25.929,25.923,25.919,25.916
2016/08/20 16:06,26.161,26.147,26.118,26.063,26.049,26.031
2016/08/20 20:06,26.217,26.224,26.226,26.229,26.227,26.224
2016/08/21 00:06,26.119,26.124,26.140,26.137,26.132,26.135
2016/08/21 04:06,25.974,25.986,25.991,25.996,26.003,26.006
2016/08/21 08:06,25.802,25.801,25.802,25.824,25.824,25.823
2016/08/21 12:06,25.556,25.576,25.578,25.561,25.568,25.579
2016/08/21 16:06,25.626,25.636,25.632,25.635,25.628,25.623
2016/08/21 20:06,25.688,25.699,25.699,25.700,25.697,25.699
2016/08/22 00:06,25.557,25.558,25.566,25.568,25.579,25.585
2016/08/22 04:06,25.316,25.306,25.329,25.328,25.329,25.331
2016/08/22 08:06,25.095,25.121,25.123,25.118,25.121,25.119
2016/08/22 12:06,24.888,24.894,24.905,24.909,24.909,24.912
2016/08/22 16:06,25.508,25.196,24.963,24.889,24.867,24.857
2016/08/22 20:06,27.025,25.469,25.065,24.959,24.882,24.843
2016/08/22 22:17,26.729,25.679,24.912,24.831,24.808,24.814
2016/08/22 23:06,26.826,26.727,25.043,24.940,24.836,24.807
2016/08/23 00:06,26.245,26.153,25.009,24.898,24.821,24.784
2016/08/23 01:06,25.782,25.732,25.192,24.914,24.847,24.815
2016/08/23 02:06,25.375,25.387,25.374,25.195,24.986,24.839
2016/08/23 03:06,25.197,25.203,25.180,25.118,25.039,24.977
